Back to catalog

SL-14 R/B

AlivePO
NORAD 21233·ROCKET BODY·🇷🇺 Russia

Launched Apr 24, 1991 from Plesetsk Cosmodrome

Loading…

Next Passes (next 24 hours)

TLE

FreshSource: Space-Track

Epoch: Sep 14, 2026, 14:09 UTC

1 21233U 91030B   26257.58966363 -.00000065  00000-0 -20265-3 0  9993
2 21233  82.5467 130.0929 0016302 325.1453  49.2782 13.16390360700511

Track SL-14 R/B in real time with AllMySat

Download on the App Store